logo tempoitalia

Diretta Meteo Tolmachevo, Russialunedì 31 agosto ore 12:11

Mappa
Sereno 13 °C Molto Nuvoloso 24 Ore: T.min 9 T.max 19
Ponente Ovest Km/h 25.2 Punto di rugiada: 3 °C Umidità: 50% Visibilità: 10 Km
Il sole sorge alle: 06:33 Il sole tramonta alle: 20:26
31 Agosto 2026 12:11 tempo osservato: Molto Nuvoloso Molto Nuvoloso 13 50 1010 vento: Nord O 25.2
31 Agosto 2026 12:00 tempo osservato: Molto Nuvoloso Molto Nuvoloso 13 50 1010 vento: Nord O 28.8
31 Agosto 2026 11:30 tempo osservato: Molto Nuvoloso Molto Nuvoloso 12 62 1010 vento: Nord O/NO 21.6
31 Agosto 2026 11:00 tempo osservato: Molto Nuvoloso Molto Nuvoloso 12 66 1009 vento: Nord O/NO 21.6
31 Agosto 2026 10:30 tempo osservato: Molto Nuvoloso Molto Nuvoloso 11 71 1009 vento: Nord O/NO 18
31 Agosto 2026 10:00 tempo osservato: Nuvoloso Nuvoloso 11 76 1009 vento: Nord O 14.4
31 Agosto 2026 09:30 tempo osservato: Nuvoloso Nuvoloso 10 87 1009 vento: Nord O/NO 18
31 Agosto 2026 09:00 tempo osservato: Nuvoloso Nuvoloso 9 100 1008 vento: Nord O 14.4
31 Agosto 2026 08:30 tempo osservato: Nuvoloso Nuvoloso 9 100 1008 vento: Nord O 10.8
31 Agosto 2026 08:00 tempo osservato: Molto Nuvoloso Molto Nuvoloso 9 100 1008 vento: Nord O/NO 10.8
31 Agosto 2026 07:30 tempo osservato: Molto Nuvoloso Molto Nuvoloso 9 100 1008 vento: Nord O/NO 10.8
31 Agosto 2026 07:00 tempo osservato: Pioggia Pioggia 9 100 1008 vento: Nord O 10.8
31 Agosto 2026 06:30 tempo osservato: Pioggia Pioggia 10 93 1007 vento: Nord O/NO 14.4
31 Agosto 2026 06:00 tempo osservato: Sereno Sereno 11 81 1007 vento: Nord O/NO 18
31 Agosto 2026 05:30 tempo osservato: Sereno Sereno 10 81 1007 vento: Nord O 18
31 Agosto 2026 05:00 tempo osservato: Sereno Sereno 11 81 1007 vento: Nord SO 10.8
31 Agosto 2026 04:30 tempo osservato: Pioggia Pioggia 12 76 1007 vento: Nord SO 10.8
31 Agosto 2026 04:00 tempo osservato: Pioggia Pioggia 12 76 1007 vento: Nord S/SO 10.8
31 Agosto 2026 03:30 tempo osservato: Sereno Sereno 11 87 1006 vento: Nord N 3.6
31 Agosto 2026 03:00 tempo osservato: Sereno Sereno 11 87 1006 vento: Nord N 0
31 Agosto 2026 02:30 tempo osservato: Pioggia Pioggia 12 76 1007 vento: Nord N 3.6
31 Agosto 2026 02:00 tempo osservato: Sereno Sereno 11 76 1007 vento: Nord N 7.2
31 Agosto 2026 01:30 tempo osservato: Sereno Sereno 12 76 1007 vento: Nord N 7.2
31 Agosto 2026 01:00 tempo osservato: Sereno Sereno 11 81 1007 vento: Nord N 3.6
31 Agosto 2026 00:30 tempo osservato: Sereno Sereno 12 76 1008 vento: Nord N 3.6
31 Agosto 2026 00:00 tempo osservato: Sereno Sereno 12 76 1008 vento: Nord N 7.2
30 Agosto 2026 23:30 tempo osservato: Pioggia Pioggia 12 76 1008 vento: Nord O/NO 14.4
30 Agosto 2026 23:00 tempo osservato: Pioggia Pioggia 13 66 1008 vento: Nord O 14.4
30 Agosto 2026 22:30 tempo osservato: Pioggia Pioggia 13 62 1008 vento: Nord O 14.4
30 Agosto 2026 22:00 tempo osservato: Sereno Sereno 15 51 1008 vento: Nord S/SE 10.8
30 Agosto 2026 21:30 tempo osservato: Sereno Sereno 15 51 1008 vento: Nord N 7.2
30 Agosto 2026 21:00 tempo osservato: Sereno Sereno 15 51 1008 vento: Nord N 7.2
30 Agosto 2026 20:30 tempo osservato: Sereno Sereno 15 47 1009 vento: Nord N 7.2
30 Agosto 2026 20:00 tempo osservato: Sereno Sereno 16 44 1009 vento: Nord N 7.2
30 Agosto 2026 19:30 tempo osservato: Sereno Sereno 17 45 1009 vento: Nord N 7.2
30 Agosto 2026 19:00 tempo osservato: Sereno Sereno 18 42 1009 vento: Nord S 10.8
30 Agosto 2026 18:30 tempo osservato: Sereno Sereno 18 39 1009 vento: Nord S/SE 10.8
30 Agosto 2026 18:00 tempo osservato: Sereno Sereno 19 37 1010 vento: Nord S/SE 10.8
30 Agosto 2026 17:30 tempo osservato: Sereno Sereno 19 37 1010 vento: Nord N 7.2
30 Agosto 2026 17:00 tempo osservato: Sereno Sereno 19 37 1010 vento: Nord N 7.2
30 Agosto 2026 16:30 tempo osservato: Sereno Sereno 19 34 1010 vento: Nord N 3.6
30 Agosto 2026 16:00 tempo osservato: Sereno Sereno 19 32 1010 vento: Nord N 7.2
30 Agosto 2026 15:30 tempo osservato: Sereno Sereno 19 34 1011 vento: Nord N 7.2
30 Agosto 2026 15:00 tempo osservato: Sereno Sereno 18 36 1011 vento: Nord N 3.6
30 Agosto 2026 14:30 tempo osservato: Sereno Sereno 18 39 1011 vento: Nord N 10.8
30 Agosto 2026 14:00 tempo osservato: Sereno Sereno 18 39 1011 vento: Nord N 3.6
30 Agosto 2026 13:30 tempo osservato: Sereno Sereno 18 39 1011 vento: Nord N 7.2
30 Agosto 2026 13:00 tempo osservato: Sereno Sereno 17 41 1011 vento: Nord NE 14.4